QPF
0.00 0.00 0.00 0.00 0.00 0.00 0.00 0.00 0.00 0.00 0.00 0.00 0.00 0.01 0.00 0.00 0.00 0.00 0.00 0.00 0.00 0.00 0.00 0.00 0.01 0.01 0.04 0.09 0.10 0.09 0.08 0.11 0.16 0.22 0.20 0.15 0.11 0.08 0.06 0.04 0.04 0.02 0.02 0.03
0.00 0.00 0.00 0.00 0.00 0.00 0.00 0.00 0.00 0.00 0.00 0.00 0.00 0.00 0.00 0.00 0.00 0.00 0.00 0.00 0.00 0.00 0.00 0.01 0.01 0.02 0.05 0.10 0.12 0.11 0.09 0.11 0.14 0.19 0.20 0.17 0.15 0.11 0.08 0.07 0.08 0.04 0.03 0.04
0.00 0.00 0.00 0.00 0.00 0.00 0.00 0.00 0.00 0.00 0.00 0.00 0.00 0.00 0.01 0.01 0.00 0.00 0.00 0.00 0.00 0.00 0.00 0.01 0.01 0.03 0.05 0.07 0.09 0.12 0.13 0.15 0.18 0.19 0.18 0.16 0.15 0.14 0.13 0.11 0.11 0.07 0.05 0.04
0.00 0.00 0.00 0.00 0.00 0.00 0.00 0.00 0.00 0.00 0.00 0.00 0.00 0.01 0.02 0.02 0.02 0.00 0.00 0.00 0.00 0.00 0.01 0.01 0.02 0.03 0.04 0.05 0.06 0.12 0.16 0.18 0.19 0.18 0.20 0.18 0.13 0.11 0.13 0.11 0.10 0.09 0.08 0.07
0.00 0.00 0.00 0.00 0.00 0.00 0.00 0.00 0.00 0.00 0.00 0.00 0.00 0.00 0.02 0.04 0.01 0.00 0.00 0.00 0.00 0.00 0.01 0.01 0.02 0.04 0.05 0.04 0.06 0.09 0.12 0.14 0.14 0.15 0.18 0.19 0.15 0.14 0.15 0.14 0.15 0.12 0.10 0.09
0.00 0.00 0.00 0.00 0.00 0.00 0.00 0.00 0.00 0.00 0.00 0.00 0.00 0.00 0.01 0.02 0.01 0.00 0.00 0.00 0.00 0.00 0.00 0.01 0.02 0.05 0.05 0.03 0.04 0.06 0.08 0.09 0.10 0.11 0.13 0.13 0.14 0.17 0.19 0.17 0.16 0.12 0.13 0.11
0.00 0.00 0.00 0.00 0.00 0.00 0.00 0.00 0.00 0.00 0.00 0.00 0.00 0.00 0.00 0.00 0.00 0.00 0.00 0.00 0.00 0.01 0.00 0.01 0.03 0.05 0.03 0.03 0.04 0.05 0.06 0.07 0.09 0.10 0.11 0.10 0.12 0.13 0.13 0.12 0.12 0.12 0.11 0.12
0.00 0.00 0.00 0.00 0.00 0.00 0.00 0.00 0.00 0.00 0.00 0.00 0.01 0.01 0.01 0.00 0.00 0.00 0.00 0.00 0.00 0.02 0.02 0.03 0.05 0.03 0.03 0.03 0.04 0.05 0.06 0.08 0.10 0.11 0.11 0.11 0.10 0.11 0.11 0.12 0.11 0.11 0.10 0.11
0.00 0.00 0.00 0.00 0.00 0.00 0.00 0.00 0.00 0.00 0.00 0.00 0.00 0.01 0.01 0.00 0.00 0.00 0.00 0.00 0.00 0.01 0.02 0.03 0.02 0.01 0.01 0.03 0.05 0.05 0.06 0.09 0.11 0.12 0.11 0.11 0.11 0.12 0.13 0.14 0.12 0.10 0.10 0.11
0.00 0.00 0.00 0.00 0.00 0.00 0.00 0.00 0.00 0.00 0.00 0.00 0.01 0.02 0.01 0.00 0.00 0.00 0.00 0.00 0.00 0.00 0.01 0.03 0.01 0.00 0.00 0.02 0.04 0.05 0.07 0.09 0.11 0.12 0.10 0.09 0.11 0.11 0.13 0.13 0.14 0.12 0.12 0.12
0.00 0.00 0.00 0.00 0.00 0.00 0.00 0.00 0.00 0.00 0.00 0.00 0.00 0.01 0.01 0.01 0.00 0.00 0.00 0.00 0.00 0.00 0.00 0.02 0.02 0.00 0.00 0.01 0.03 0.04 0.06 0.07 0.08 0.10 0.09 0.11 0.11 0.11 0.11 0.11 0.12 0.13 0.11 0.11
0.00 0.00 0.00 0.00 0.00 0.00 0.00 0.00 0.00 0.00 0.00 0.00 0.00 0.01 0.01 0.02 0.01 0.00 0.01 0.00 0.00 0.00 0.00 0.00 0.02 0.02 0.01 0.02 0.02 0.03 0.04 0.04 0.07 0.09 0.09 0.10 0.10 0.10 0.09 0.09 0.10 0.12 0.11 0.09
0.00 0.00 0.00 0.00 0.00 0.00 0.00 0.00 0.00 0.00 0.00 0.00 0.00 0.01 0.02 0.01 0.01 0.00 0.01 0.02 0.00 0.00 0.00 0.01 0.02 0.02 0.01 0.01 0.01 0.02 0.03 0.04 0.04 0.07 0.09 0.09 0.11 0.09 0.07 0.08 0.09 0.10 0.11 0.11
0.00 0.00 0.00 0.00 0.00 0.00 0.00 0.00 0.00 0.00 0.00 0.00 0.00 0.01 0.04 0.02 0.01 0.00 0.00 0.00 0.00 0.00 0.00 0.01 0.01 0.01 0.01 0.01 0.01 0.02 0.02 0.03 0.04 0.07 0.09 0.09 0.09 0.08 0.08 0.09 0.11 0.10 0.10 0.11
0.00 0.00 0.00 0.00 0.00 0.00 0.00 0.00 0.00 0.00 0.00 0.00 0.00 0.03 0.04 0.02 0.01 0.01 0.00 0.00 0.00 0.00 0.00 0.00 0.01 0.02 0.01 0.01 0.01 0.01 0.02 0.02 0.03 0.05 0.05 0.06 0.07 0.07 0.08 0.09 0.10 0.09 0.07 0.08
0.00 0.00 0.00 0.00 0.00 0.00 0.00 0.00 0.00 0.00 0.00 0.00 0.00 0.02 0.02 0.02 0.03 0.01 0.00 0.00 0.00 0.00 0.00 0.00 0.01 0.01 0.02 0.02 0.02 0.01 0.02 0.03 0.05 0.06 0.07 0.09 0.10 0.09 0.07 0.07 0.07 0.05 0.06 0.07
0.00 0.00 0.00 0.00 0.00 0.00 0.00 0.00 0.00 0.00 0.00 0.00 0.00 0.01 0.01 0.01 0.02 0.01 0.00 0.00 0.00 0.00 0.00 0.00 0.00 0.01 0.02 0.03 0.04 0.04 0.03 0.03 0.05 0.06 0.08 0.10 0.09 0.06 0.04 0.04 0.03 0.03 0.04 0.05
0.00 0.00 0.00 0.00 0.00 0.00 0.00 0.00 0.00 0.00 0.00 0.00 0.01 0.00 0.00 0.00 0.01 0.01 0.01 0.02 0.01 0.00 0.00 0.00 0.01 0.01 0.01 0.03 0.03 0.04 0.05 0.06 0.06 0.04 0.05 0.05 0.05 0.04 0.03 0.04 0.04 0.04 0.04 0.04
0.00 0.00 0.00 0.00 0.00 0.00 0.00 0.00 0.00 0.01 0.01 0.01 0.01 0.00 0.00 0.02 0.02 0.02 0.02 0.02 0.01 0.01 0.01 0.01 0.01 0.01 0.02 0.04 0.05 0.04 0.06 0.06 0.05 0.04 0.04 0.04 0.03 0.03 0.04 0.05 0.08 0.08 0.06 0.05
0.00 0.00 0.00 0.00 0.00 0.00 0.01 0.01 0.01 0.00 0.01 0.01 0.01 0.01 0.02 0.02 0.04 0.05 0.06 0.04 0.01 0.01 0.02 0.02 0.01 0.02 0.02 0.03 0.03 0.02 0.03 0.04 0.04 0.05 0.05 0.06 0.05 0.04 0.04 0.05 0.06 0.08 0.05 0.05
0.00 0.00 0.00 0.00 0.01 0.03 0.03 0.02 0.01 0.01 0.02 0.00 0.00 0.01 0.02 0.03 0.04 0.04 0.05 0.03 0.01 0.01 0.01 0.01 0.01 0.03 0.03 0.02 0.03 0.02 0.02 0.02 0.03 0.05 0.05 0.06 0.05 0.05 0.04 0.04 0.04 0.05 0.04 0.04
0.00 0.00 0.00 0.00 0.02 0.04 0.04 0.03 0.03 0.03 0.01 0.00 0.00 0.00 0.01 0.02 0.02 0.02 0.02 0.02 0.02 0.01 0.02 0.02 0.02 0.03 0.04 0.04 0.04 0.03 0.03 0.02 0.03 0.04 0.04 0.06 0.05 0.05 0.04 0.04 0.04 0.04 0.03 0.02
0.00 0.01 0.01 0.02 0.04 0.03 0.02 0.02 0.01 0.01 0.01 0.01 0.00 0.00 0.01 0.02 0.02 0.02 0.02 0.02 0.02 0.02 0.02 0.01 0.02 0.02 0.03 0.04 0.05 0.04 0.04 0.03 0.03 0.03 0.04 0.04 0.04 0.05 0.04 0.04 0.04 0.04 0.03 0.03
0.00 0.00 0.00 0.01 0.02 0.02 0.02 0.01 0.01 0.01 0.01 0.01 0.00 0.00 0.01 0.01 0.02 0.02 0.02 0.02 0.02 0.02 0.02 0.02 0.03 0.03 0.03 0.04 0.04 0.04 0.04 0.03 0.03 0.03 0.04 0.05 0.05 0.05 0.04 0.03 0.03 0.03 0.03 0.03
0.01 0.00 0.00 0.01 0.01 0.01 0.01 0.01 0.00 0.00 0.00 0.00 0.00 0.00 0.01 0.02 0.02 0.02 0.02 0.01 0.01 0.01 0.02 0.03 0.05 0.04 0.04 0.04 0.04 0.04 0.03 0.03 0.03 0.04 0.05 0.04 0.04 0.03 0.04 0.03 0.02 0.02 0.03 0.03
0.00 0.00 0.01 0.02 0.02 0.02 0.01 0.00 0.00 0.00 0.00 0.00 0.00 0.00 0.00 0.01 0.01 0.01 0.01 0.02 0.02 0.01 0.01 0.02 0.03 0.04 0.04 0.05 0.05 0.05 0.05 0.04 0.03 0.02 0.03 0.02 0.02 0.02 0.02 0.02 0.02 0.03 0.03 0.04
MSLP
1009.81 1010.21 1010.48 1010.63 1010.67 1010.63 1010.53 1010.37 1010.14 1009.84 1009.45 1008.98 1008.47 1007.95 1007.49 1007.15 1007.00 1007.07 1007.37 1007.87 1008.53 1009.29 1010.09 1010.88 1011.60 1012.25 1012.82 1013.33 1013.78 1014.21 1014.60 1014.97 1015.29 1015.57 1015.78 1015.93 1016.03 1016.08 1016.12 1016.17 1016.24 1016.36 1016.53 1016.74
1010.38 1010.64 1010.77 1010.80 1010.77 1010.72 1010.66 1010.60 1010.49 1010.32 1010.03 1009.63 1009.12 1008.56 1008.00 1007.53 1007.24 1007.18 1007.36 1007.80 1008.43 1009.20 1010.02 1010.83 1011.57 1012.21 1012.76 1013.23 1013.64 1014.03 1014.40 1014.77 1015.12 1015.44 1015.71 1015.90 1016.02 1016.08 1016.09 1016.10 1016.12 1016.18 1016.31 1016.50
1010.78 1010.89 1010.87 1010.80 1010.72 1010.69 1010.72 1010.78 1010.84 1010.82 1010.66 1010.34 1009.85 1009.23 1008.56 1007.95 1007.49 1007.27 1007.32 1007.66 1008.24 1008.99 1009.82 1010.65 1011.41 1012.06 1012.61 1013.06 1013.44 1013.81 1014.17 1014.55 1014.94 1015.30 1015.62 1015.86 1016.02 1016.09 1016.09 1016.06 1016.04 1016.06 1016.14 1016.30
1010.96 1010.92 1010.79 1010.65 1010.56 1010.59 1010.73 1010.96 1011.20 1011.35 1011.34 1011.10 1010.62 1009.95 1009.17 1008.39 1007.75 1007.34 1007.24 1007.45 1007.95 1008.67 1009.51 1010.36 1011.16 1011.84 1012.40 1012.86 1013.24 1013.60 1013.97 1014.35 1014.76 1015.17 1015.53 1015.82 1016.01 1016.10 1016.11 1016.06 1016.01 1015.98 1016.02 1016.15
1010.91 1010.76 1010.55 1010.38 1010.33 1010.45 1010.74 1011.16 1011.59 1011.92 1012.04 1011.89 1011.42 1010.69 1009.78 1008.84 1008.00 1007.39 1007.11 1007.19 1007.61 1008.28 1009.12 1010.01 1010.85 1011.58 1012.18 1012.67 1013.07 1013.43 1013.80 1014.19 1014.62 1015.04 1015.44 1015.76 1015.98 1016.10 1016.11 1016.05 1015.98 1015.92 1015.92 1016.00
1010.70 1010.47 1010.23 1010.07 1010.09 1010.33 1010.78 1011.38 1011.99 1012.49 1012.74 1012.65 1012.19 1011.40 1010.37 1009.26 1008.23 1007.43 1006.98 1006.92 1007.23 1007.86 1008.70 1009.62 1010.51 1011.31 1011.97 1012.50 1012.93 1013.31 1013.68 1014.07 1014.49 1014.91 1015.32 1015.66 1015.90 1016.03 1016.05 1015.99 1015.90 1015.82 1015.78 1015.82
1010.38 1010.12 1009.89 1009.78 1009.89 1010.26 1010.86 1011.60 1012.37 1013.00 1013.35 1013.31 1012.85 1012.01 1010.88 1009.62 1008.43 1007.46 1006.85 1006.66 1006.88 1007.46 1008.28 1009.23 1010.18 1011.05 1011.77 1012.36 1012.82 1013.21 1013.58 1013.95 1014.35 1014.76 1015.14 1015.48 1015.73 1015.87 1015.90 1015.85 1015.75 1015.65 1015.59 1015.59
1010.05 1009.81 1009.62 1009.58 1009.78 1010.25 1010.95 1011.81 1012.68 1013.38 1013.79 1013.78 1013.33 1012.45 1011.25 1009.90 1008.59 1007.50 1006.75 1006.45 1006.58 1007.10 1007.91 1008.87 1009.86 1010.78 1011.57 1012.20 1012.70 1013.11 1013.46 1013.82 1014.18 1014.55 1014.91 1015.23 1015.47 1015.61 1015.65 1015.61 1015.52 1015.42 1015.34 1015.31
1009.78 1009.59 1009.47 1009.50 1009.77 1010.30 1011.05 1011.95 1012.84 1013.57 1013.99 1014.00 1013.54 1012.66 1011.45 1010.06 1008.69 1007.52 1006.70 1006.31 1006.36 1006.82 1007.59 1008.55 1009.55 1010.50 1011.33 1012.01 1012.54 1012.96 1013.31 1013.64 1013.97 1014.30 1014.62 1014.92 1015.15 1015.29 1015.35 1015.33 1015.26 1015.16 1015.09 1015.05
1009.62 1009.52 1009.46 1009.55 1009.85 1010.38 1011.11 1011.97 1012.82 1013.50 1013.90 1013.90 1013.47 1012.62 1011.44 1010.08 1008.73 1007.56 1006.70 1006.25 1006.24 1006.63 1007.34 1008.25 1009.24 1010.19 1011.04 1011.74 1012.30 1012.74 1013.10 1013.42 1013.73 1014.03 1014.33 1014.61 1014.83 1014.99 1015.07 1015.08 1015.04 1014.98 1014.91 1014.87
1009.61 1009.60 1009.61 1009.73 1010.01 1010.48 1011.12 1011.85 1012.58 1013.18 1013.51 1013.50 1013.10 1012.33 1011.26 1010.01 1008.74 1007.62 1006.78 1006.31 1006.24 1006.54 1007.16 1007.99 1008.92 1009.84 1010.68 1011.40 1011.98 1012.46 1012.84 1013.18 1013.49 1013.80 1014.09 1014.37 1014.61 1014.79 1014.90 1014.96 1014.97 1014.95 1014.92 1014.89
1009.74 1009.81 1009.88 1010.00 1010.22 1010.58 1011.05 1011.61 1012.17 1012.63 1012.89 1012.87 1012.53 1011.87 1010.95 1009.87 1008.76 1007.75 1006.97 1006.49 1006.36 1006.56 1007.06 1007.77 1008.59 1009.44 1010.25 1010.97 1011.59 1012.11 1012.54 1012.93 1013.29 1013.63 1013.96 1014.26 1014.53 1014.75 1014.92 1015.03 1015.10 1015.13 1015.14 1015.14
1009.97 1010.12 1010.23 1010.33 1010.46 1010.66 1010.95 1011.29 1011.65 1011.96 1012.14 1012.12 1011.86 1011.35 1010.64 1009.77 1008.85 1007.99 1007.28 1006.81 1006.61 1006.70 1007.04 1007.59 1008.27 1009.02 1009.77 1010.48 1011.13 1011.71 1012.23 1012.70 1013.14 1013.55 1013.94 1014.30 1014.62 1014.90 1015.13 1015.31 1015.44 1015.53 1015.59 1015.62
1010.29 1010.51 1010.64 1010.70 1010.73 1010.77 1010.84 1010.97 1011.13 1011.29 1011.39 1011.38 1011.23 1010.90 1010.41 1009.78 1009.08 1008.38 1007.76 1007.29 1007.01 1006.96 1007.12 1007.48 1007.98 1008.60 1009.27 1009.96 1010.64 1011.29 1011.91 1012.49 1013.04 1013.55 1014.03 1014.47 1014.86 1015.20 1015.49 1015.73 1015.92 1016.07 1016.18 1016.25
1010.68 1010.95 1011.09 1011.11 1011.03 1010.92 1010.81 1010.74 1010.72 1010.75 1010.79 1010.82 1010.77 1010.63 1010.37 1009.98 1009.49 1008.95 1008.41 1007.93 1007.56 1007.34 1007.30 1007.45 1007.76 1008.21 1008.78 1009.44 1010.14 1010.87 1011.59 1012.30 1012.97 1013.60 1014.17 1014.70 1015.16 1015.56 1015.90 1016.19 1016.44 1016.63 1016.79 1016.90
1011.12 1011.43 1011.58 1011.55 1011.40 1011.16 1010.90 1010.67 1010.51 1010.45 1010.46 1010.53 1010.60 1010.63 1010.58 1010.41 1010.11 1009.71 1009.23 1008.72 1008.25 1007.86 1007.60 1007.52 1007.62 1007.90 1008.36 1008.96 1009.67 1010.46 1011.28 1012.10 1012.90 1013.64 1014.31 1014.91 1015.43 1015.88 1016.27 1016.60 1016.87 1017.11 1017.30 1017.44
1011.61 1011.94 1012.08 1012.04 1011.83 1011.51 1011.15 1010.82 1010.57 1010.44 1010.45 1010.57 1010.75 1010.93 1011.06 1011.07 1010.93 1010.62 1010.18 1009.63 1009.04 1008.48 1008.01 1007.70 1007.58 1007.69 1008.03 1008.56 1009.27 1010.10 1011.00 1011.92 1012.81 1013.64 1014.39 1015.05 1015.62 1016.10 1016.50 1016.85 1017.15 1017.40 1017.62 1017.79
1012.11 1012.45 1012.60 1012.55 1012.33 1011.97 1011.56 1011.18 1010.89 1010.74 1010.76 1010.93 1011.20 1011.50 1011.76 1011.90 1011.87 1011.63 1011.20 1010.60 1009.89 1009.16 1008.50 1007.98 1007.68 1007.62 1007.83 1008.30 1008.97 1009.82 1010.76 1011.75 1012.71 1013.60 1014.40 1015.10 1015.69 1016.17 1016.58 1016.93 1017.23 1017.49 1017.73 1017.93
1012.59 1012.93 1013.09 1013.05 1012.83 1012.49 1012.08 1011.69 1011.40 1011.26 1011.31 1011.52 1011.85 1012.23 1012.58 1012.80 1012.83 1012.63 1012.18 1011.53 1010.73 1009.87 1009.05 1008.36 1007.90 1007.70 1007.80 1008.18 1008.82 1009.66 1010.62 1011.63 1012.62 1013.55 1014.37 1015.07 1015.66 1016.14 1016.54 1016.87 1017.17 1017.44 1017.69 1017.91
1013.01 1013.33 1013.50 1013.48 1013.30 1012.99 1012.62 1012.27 1012.01 1011.90 1011.97 1012.21 1012.57 1012.99 1013.38 1013.64 1013.70 1013.50 1013.05 1012.35 1011.49 1010.54 1009.61 1008.81 1008.22 1007.92 1007.93 1008.24 1008.84 1009.64 1010.59 1011.60 1012.60 1013.52 1014.34 1015.04 1015.61 1016.07 1016.45 1016.78 1017.07 1017.34 1017.61 1017.86
1013.32 1013.62 1013.79 1013.80 1013.66 1013.41 1013.10 1012.81 1012.60 1012.52 1012.61 1012.86 1013.23 1013.65 1014.04 1014.30 1014.35 1014.16 1013.69 1012.98 1012.09 1011.11 1010.13 1009.27 1008.62 1008.26 1008.20 1008.47 1009.01 1009.78 1010.70 1011.68 1012.66 1013.56 1014.36 1015.04 1015.60 1016.05 1016.42 1016.74 1017.04 1017.33 1017.61 1017.90
1013.50 1013.76 1013.93 1013.97 1013.89 1013.70 1013.46 1013.24 1013.08 1013.03 1013.14 1013.38 1013.72 1014.11 1014.46 1014.70 1014.73 1014.53 1014.07 1013.38 1012.50 1011.53 1010.56 1009.71 1009.05 1008.67 1008.58 1008.81 1009.31 1010.04 1010.91 1011.86 1012.79 1013.67 1014.45 1015.11 1015.66 1016.11 1016.49 1016.82 1017.14 1017.46 1017.78 1018.10
1013.55 1013.78 1013.93 1014.00 1013.97 1013.85 1013.68 1013.52 1013.41 1013.39 1013.49 1013.70 1014.00 1014.33 1014.63 1014.81 1014.82 1014.61 1014.17 1013.51 1012.69 1011.78 1010.87 1010.07 1009.45 1009.08 1009.00 1009.21 1009.68 1010.35 1011.18 1012.07 1012.97 1013.82 1014.57 1015.23 1015.78 1016.25 1016.65 1017.02 1017.38 1017.74 1018.11 1018.48
1013.51 1013.69 1013.84 1013.93 1013.94 1013.88 1013.78 1013.67 1013.60 1013.59 1013.67 1013.84 1014.07 1014.33 1014.55 1014.68 1014.65 1014.44 1014.02 1013.42 1012.68 1011.86 1011.05 1010.33 1009.78 1009.45 1009.38 1009.58 1010.02 1010.65 1011.42 1012.26 1013.12 1013.93 1014.67 1015.33 1015.90 1016.41 1016.86 1017.29 1017.70 1018.13 1018.56 1018.98
1013.44 1013.59 1013.74 1013.84 1013.89 1013.88 1013.83 1013.77 1013.71 1013.70 1013.75 1013.86 1014.01 1014.18 1014.32 1014.38 1014.32 1014.10 1013.71 1013.18 1012.52 1011.81 1011.10 1010.47 1010.00 1009.72 1009.67 1009.86 1010.26 1010.84 1011.56 1012.35 1013.15 1013.94 1014.68 1015.35 1015.95 1016.51 1017.02 1017.52 1018.01 1018.51 1019.00 1019.48
1013.42 1013.56 1013.70 1013.82 1013.89 1013.92 1013.91 1013.87 1013.83 1013.80 1013.80 1013.84 1013.91 1013.99 1014.04 1014.03 1013.93 1013.70 1013.34 1012.86 1012.29 1011.67 1011.06 1010.52 1010.12 1009.88 1009.84 1010.01 1010.37 1010.89 1011.54 1012.27 1013.04 1013.80 1014.53 1015.22 1015.87 1016.48 1017.07 1017.64 1018.21 1018.77 1019.33 1019.86
Thickness
5841 5832 5828 5841 5851 5849 5846 5845 5845 5857 5871 5859 5851 5851 5858 5864 5858 5851 5844 5837 5830 5825 5824 5819 5811 5805 5798 5790 5784 5779 5774 5771 5767 5764 5761 5759 5759 5761 5762 5761 5760 5758 5757 5756
5828 5824 5844 5856 5858 5850 5843 5837 5842 5857 5869 5858 5850 5849 5860 5862 5857 5854 5847 5838 5832 5825 5821 5814 5809 5803 5796 5788 5783 5778 5773 5770 5766 5764 5762 5761 5761 5761 5762 5762 5760 5759 5758 5757
5820 5840 5854 5848 5842 5836 5837 5837 5840 5842 5855 5860 5849 5838 5846 5850 5858 5855 5852 5845 5837 5828 5820 5812 5806 5801 5795 5788 5783 5779 5773 5769 5767 5765 5762 5762 5760 5759 5759 5759 5759 5759 5758 5757
5829 5847 5845 5838 5835 5836 5828 5850 5848 5842 5834 5832 5843 5816 5831 5838 5839 5846 5846 5842 5837 5832 5823 5814 5807 5800 5795 5790 5786 5780 5774 5770 5767 5764 5762 5760 5758 5756 5758 5759 5760 5760 5759 5758
5827 5840 5836 5829 5836 5842 5839 5855 5848 5841 5833 5825 5835 5824 5827 5840 5831 5837 5844 5843 5839 5833 5824 5815 5809 5802 5797 5793 5787 5781 5775 5770 5768 5766 5764 5762 5760 5760 5760 5761 5759 5759 5759 5758
5836 5851 5847 5841 5849 5851 5850 5844 5839 5838 5829 5804 5823 5820 5817 5832 5835 5839 5843 5842 5838 5832 5825 5817 5812 5804 5798 5794 5789 5783 5775 5771 5769 5767 5766 5764 5761 5760 5758 5758 5757 5757 5757 5758
5817 5833 5847 5850 5836 5842 5838 5817 5800 5797 5797 5797 5828 5824 5822 5843 5852 5849 5843 5839 5836 5829 5823 5815 5808 5801 5796 5792 5787 5783 5777 5771 5770 5768 5766 5765 5763 5761 5759 5758 5758 5757 5756 5757
5800 5807 5833 5840 5833 5828 5828 5822 5795 5785 5788 5801 5816 5813 5828 5854 5857 5855 5849 5842 5835 5827 5821 5814 5808 5801 5796 5792 5787 5783 5777 5773 5771 5769 5768 5767 5765 5763 5762 5761 5760 5759 5758 5759
5815 5813 5843 5845 5846 5839 5825 5824 5836 5819 5811 5800 5809 5821 5833 5850 5847 5846 5843 5837 5830 5826 5820 5814 5808 5803 5798 5792 5788 5784 5779 5775 5773 5771 5769 5767 5765 5764 5763 5763 5762 5760 5760 5759
5827 5813 5834 5842 5841 5840 5839 5835 5826 5813 5793 5787 5797 5805 5809 5823 5832 5836 5835 5831 5829 5825 5820 5814 5808 5804 5800 5795 5790 5786 5782 5776 5774 5771 5769 5768 5765 5765 5764 5762 5761 5760 5759 5758
5826 5809 5821 5828 5817 5818 5822 5820 5819 5818 5815 5795 5783 5787 5825 5828 5834 5834 5833 5833 5829 5825 5820 5814 5808 5804 5801 5796 5791 5785 5781 5777 5773 5771 5769 5767 5765 5764 5762 5760 5759 5758 5757 5755
5821 5812 5805 5819 5837 5841 5833 5825 5819 5798 5799 5807 5796 5798 5835 5837 5840 5839 5833 5832 5830 5826 5822 5817 5810 5805 5800 5796 5792 5786 5781 5777 5774 5771 5768 5765 5763 5762 5760 5758 5757 5756 5754 5753
5814 5801 5784 5794 5813 5826 5822 5827 5827 5822 5811 5803 5796 5794 5832 5832 5837 5837 5832 5828 5826 5824 5820 5816 5809 5803 5799 5796 5792 5787 5782 5778 5775 5771 5766 5763 5761 5759 5757 5756 5754 5753 5751 5749
5814 5796 5788 5785 5799 5815 5810 5818 5826 5819 5806 5801 5804 5801 5814 5818 5823 5828 5828 5826 5824 5819 5816 5812 5805 5802 5799 5795 5791 5787 5783 5779 5775 5770 5765 5761 5758 5756 5754 5753 5751 5749 5747 5744
5804 5786 5792 5803 5816 5823 5820 5818 5821 5817 5817 5811 5811 5806 5810 5815 5822 5824 5825 5824 5820 5814 5811 5807 5802 5798 5795 5792 5789 5786 5782 5778 5774 5768 5763 5759 5756 5753 5751 5748 5746 5744 5742 5739
5793 5781 5786 5790 5809 5817 5816 5822 5822 5819 5822 5820 5816 5809 5823 5823 5822 5821 5821 5819 5814 5811 5809 5806 5801 5796 5792 5789 5786 5783 5779 5775 5771 5765 5761 5757 5753 5749 5746 5744 5741 5739 5736 5734
5782 5772 5768 5774 5797 5801 5794 5816 5819 5821 5825 5820 5807 5810 5821 5815 5812 5812 5815 5814 5811 5810 5807 5804 5800 5796 5791 5788 5784 5780 5777 5773 5768 5762 5758 5754 5750 5746 5743 5740 5737 5734 5731 5728
5772 5764 5766 5769 5776 5760 5797 5832 5830 5822 5821 5824 5819 5819 5818 5812 5811 5812 5814 5812 5809 5807 5805 5801 5798 5795 5792 5789 5784 5779 5774 5769 5764 5759 5754 5750 5746 5742 5738 5735 5731 5729 5727 5723
5777 5763 5758 5761 5761 5772 5799 5817 5820 5810 5803 5816 5813 5813 5812 5812 5805 5800 5806 5807 5805 5804 5802 5800 5798 5795 5790 5785 5780 5775 5769 5764 5759 5755 5751 5747 5743 5738 5733 5729 5726 5723 5720 5717
5771 5765 5752 5753 5749 5753 5779 5808 5820 5810 5785 5806 5807 5802 5801 5799 5782 5780 5796 5799 5799 5799 5798 5795 5793 5789 5783 5779 5776 5769 5763 5759 5754 5751 5748 5744 5739 5734 5728 5724 5720 5717 5714 5709
5745 5745 5742 5744 5744 5759 5780 5797 5802 5771 5766 5795 5799 5796 5792 5784 5782 5784 5790 5790 5791 5790 5790 5788 5784 5779 5775 5772 5768 5761 5757 5752 5750 5747 5743 5738 5733 5728 5724 5719 5715 5711 5707 5702
5741 5740 5737 5740 5735 5741 5773 5780 5766 5763 5781 5786 5787 5788 5783 5780 5781 5780 5779 5778 5780 5779 5779 5777 5772 5768 5766 5764 5760 5753 5748 5747 5745 5740 5735 5730 5726 5722 5717 5712 5708 5704 5700 5695
5746 5746 5745 5740 5738 5751 5764 5765 5770 5776 5772 5774 5776 5778 5776 5772 5769 5769 5768 5768 5768 5767 5766 5765 5761 5757 5756 5754 5751 5744 5741 5739 5735 5730 5725 5720 5717 5713 5709 5704 5700 5696 5692 5689
5740 5750 5742 5735 5738 5747 5755 5760 5764 5767 5767 5770 5770 5770 5769 5763 5761 5760 5758 5757 5756 5756 5755 5754 5750 5746 5743 5743 5741 5737 5734 5731 5726 5720 5715 5711 5707 5703 5699 5696 5692 5688 5685 5681
5725 5733 5731 5725 5731 5737 5743 5748 5753 5756 5759 5760 5760 5761 5758 5755 5752 5750 5747 5747 5747 5746 5745 5743 5739 5736 5733 5732 5730 5728 5726 5723 5718 5713 5708 5704 5699 5693 5687 5681 5676 5675 5669 5667
5720 5720 5717 5713 5721 5723 5726 5738 5744 5743 5744 5745 5746 5746 5748 5747 5743 5741 5738 5737 5735 5734 5733 5731 5729 5726 5724 5722 5719 5718 5716 5714 5709 5704 5700 5696 5690 5684 5679 5672 5664 5658 5657 5654